FENGYUN 1C DEB, 36996

Orbit data source: Space-Track

FENGYUN 1C DEB, 36996 is space debris in SSO originally from a launch on Mon, 10 May 1999 UTC launched from the Taiyaun Space Center, China (TSC). Fengyun 1C debris stems from the Chinese weather satellite Fengyun-1C, which was intentionally destroyed by a Chinese anti-satellite missile in 2007. This event dramatically increased the amount of space debris, with thousands of trackable fragments posing hazards to satellites and human spaceflight. The Fengyun 1C debris cloud has become a focal point in discussions about space sustainability and the need for international regulations to prevent the creation of new debris.

Loading next visibility...
Identifier
36996, 1999-025ECC
Orbit
SSO
Country
Flag of CNCN / PRC
Related business
Manufacturer
Unknown
Mission
Spacecraft
Bus & Motor
Unknown
Mass
Unknown
Launch date (UTC)
1999-05-10 (27 years ago)
Launch vehicle
Unknown
Launch site
Taiyaun Space Center, China (TSC)
Object type
Payload
Rocket body
Debris
Shape & HBR
Unknown shape, 0.1 m
Radar Cross Section
Small (<0.1 m²)

Expand to show TLE details & history
Last TLE update: 5 days ago

TLE from 5 days ago
0 FENGYUN 1C DEB
1 36996U 99025ECC 26119.17465030  .00001432  00000-0  59347-3 0  9994
2 36996  98.2415 265.3832 0251111 312.4844 229.4786 14.12415155616314
Epoch: 2026-04-29T04:11Z
TLE epoch observation values (Epoch: 2026-04-29T04:11:29.785Z)
Latitude
0.06359°
Longitude
165.37887°
Altitude
974.573 km
Speed
7.303 km/s
True Right ascension
05h 41m 34s
True Declination
0° 03' 48"
Sunlit
Object was in daylight at epoch
Visualization orbit readout
Latitude
Unknown
Longitude
Unknown
Altitude
Unknown
Speed
Unknown
Apparent Right ascension
Unknown
Apparent Declination
Unknown
Sunlit
N/A
Visualization observer readout
Local Sidereal Time
23:27:39
Azimuth
Unknown
Elevation
Unknown
Doppler factor
Unknown
Orbital elements
Apogee altitude
1,029.726 km
Perigee altitude
666.8 km
Semi-major axis
7,226.4 km
Eccentricity
0.02511
Inclination
98.2415°
RAAN
265.3832°
Arg. of periapsis
312.4844°
True anomaly
227.33547°
Mean anomaly
229.4786°
Eccentric anomaly
228.40265°
Mean motion
3.53313 °/min
Orbital period
101.89 mins
BSTAR
0.00059347
Loading maneuver chart data...
Computing Atmospheric mass density...
Loading historical data...
Loading historical data...
Loading historical data...
Loading historical data...
Loading historical data...
Loading historical data...
Loading historical data...

Documentation

Showing up to 5 results
|